Location: Albuquerque Trailhead
(34.7934°N, 106.3736°W)
Time: 09:36:22
(UTC+00:00)

Exosat Rocket - Pass Details

Date: 30 October 2021
Orbit: 759 x 2516 km, 72.3° (Epoch: 08 December)

Event Time Altitude Azimuth Distance (km) Brightness Sun altitude
Exits shadow 12:26:12 12° 259° (WSW) 3,825 6.5 -12.5°
Maximum altitude 12:34:08 29° 312° (NW) 3,259 6.2 -10.9°
Drops below altitude 10° 12:45:03 10° 7° (N) 5,024 7.6 -8.7°
Sets 12:50:01 0° 18° (NNE) 6,159 8.2 -7.7°
